Tracking 20241 objects as of 27-Jan-2020
HD Live streaming from Space Station
objects crossing your sky now

TITAN 3C TRANSTAGE DEB

Track TITAN 3C TRANSTAGE DEB now!
10-day predictions


NORAD ID: 28808
Int'l Code: 1965-108CA
Perigee: 290.4 km
Apogee: 20,250.1 km
Inclination: 27.8 °
Period: 356.1 minutes
Semi major axis: 16641 km
RCS: 0.01 m2 (small)
Launch date: December 21, 1965
Source: United States (US)
Launch site: AIR FORCE EASTERN TEST RANGE (AFETR)

Note: This is SATELLITE DEBRIS
aabbcc
Your satellite tracking list
Your tracking list is empty




NASA's NSSDC Master Catalog

Two Line Element Set (TLE):
1 28808U 65108CA  20023.78623483 +.00001312 +00000-0 +31337-3 0  9991
2 28808 027.7850 106.1769 5997040 187.1485 157.3743 04.04411617094815
Source of the keplerian elements: AFSPC